TimeCST,TemperatureF,Dew PointF,Humidity,Sea Level PressureIn,VisibilityMPH,Wind Direction,Wind SpeedMPH,Gust SpeedMPH,PrecipitationIn,Events,Conditions,WindDirDegrees,DateUTC
12:15 AM,27.5,23.0,83,30.13,10.0,NW,9.2,-,N/A,,Overcast,310,2013-02-12 06:15:00
12:35 AM,27.5,22.3,81,30.13,10.0,NW,9.2,-,N/A,,Overcast,310,2013-02-12 06:35:00
12:55 AM,27.3,22.1,81,30.14,10.0,West,10.4,-,N/A,,Overcast,280,2013-02-12 06:55:00
1:15 AM,27.3,22.5,82,30.14,10.0,West,10.4,-,N/A,,Overcast,280,2013-02-12 07:15:00
1:35 AM,27.3,22.6,83,30.14,10.0,WNW,12.7,-,N/A,,Overcast,290,2013-02-12 07:35:00
1:55 AM,27.3,22.3,81,30.13,10.0,West,12.7,-,N/A,,Overcast,280,2013-02-12 07:55:00
2:15 AM,27.1,21.9,81,30.13,10.0,WNW,10.4,-,N/A,,Overcast,300,2013-02-12 08:15:00
2:35 AM,27.0,21.2,79,30.13,10.0,WNW,10.4,-,N/A,,Overcast,290,2013-02-12 08:35:00
2:55 AM,27.1,21.9,81,30.13,10.0,West,8.1,-,N/A,,Overcast,280,2013-02-12 08:55:00
3:15 AM,27.0,22.1,82,30.13,10.0,West,8.1,-,N/A,,Overcast,270,2013-02-12 09:15:00
3:35 AM,25.7,21.7,85,30.12,10.0,West,5.8,-,N/A,,Mostly Cloudy,270,2013-02-12 09:35:00
3:55 AM,23.5,20.7,89,30.11,10.0,West,5.8,-,N/A,,Scattered Clouds,260,2013-02-12 09:55:00
4:15 AM,22.5,20.1,91,30.10,7.0,WSW,4.6,-,N/A,,Clear,250,2013-02-12 10:15:00
4:35 AM,22.8,20.5,91,30.08,7.0,Calm,Calm,-,N/A,,Clear,0,2013-02-12 10:35:00
4:55 AM,21.6,19.6,92,30.08,7.0,SSW,3.5,-,N/A,,Clear,210,2013-02-12 10:55:00
5:15 AM,22.5,20.5,92,30.07,7.0,SW,3.5,-,N/A,,Clear,220,2013-02-12 11:15:00
5:35 AM,20.3,18.3,92,30.08,7.0,SSW,6.9,-,N/A,,Clear,200,2013-02-12 11:35:00
6:15 AM,21.2,19.4,93,30.09,7.0,SSW,8.1,-,N/A,,Clear,200,2013-02-12 12:15:00
6:35 AM,21.0,19.0,92,30.09,10.0,SW,6.9,-,N/A,,Clear,220,2013-02-12 12:35:00
6:55 AM,20.8,19.0,93,30.09,10.0,SSW,6.9,-,N/A,,Clear,200,2013-02-12 12:55:00
7:15 AM,20.7,18.9,93,30.09,10.0,SSW,8.1,-,N/A,,Clear,200,2013-02-12 13:15:00
7:35 AM,21.2,19.4,93,30.08,10.0,SSW,8.1,-,N/A,,Clear,200,2013-02-12 13:35:00
7:55 AM,22.3,20.3,92,30.07,10.0,SSW,8.1,-,N/A,,Clear,200,2013-02-12 13:55:00
8:15 AM,23.5,21.2,91,30.06,10.0,SSW,8.1,-,N/A,,Clear,200,2013-02-12 14:15:00
8:35 AM,25.2,22.3,89,30.06,10.0,SSW,5.8,-,N/A,,Clear,200,2013-02-12 14:35:00
8:55 AM,26.6,22.8,86,30.05,10.0,SW,5.8,-,N/A,,Clear,220,2013-02-12 14:55:00
9:15 AM,28.0,23.5,83,30.05,10.0,SW,12.7,-,N/A,,Clear,220,2013-02-12 15:15:00
9:35 AM,29.7,24.1,80,30.04,10.0,SW,10.4,-,N/A,,Clear,230,2013-02-12 15:35:00
9:55 AM,31.6,25.0,76,30.06,10.0,SSW,16.1,-,N/A,,Clear,200,2013-02-12 15:55:00
10:15 AM,32.0,24.8,75,30.05,10.0,SW,16.1,-,N/A,,Clear,220,2013-02-12 16:15:00
10:35 AM,33.1,25.7,74,30.05,10.0,SSW,15.0,-,N/A,,Clear,210,2013-02-12 16:35:00
10:55 AM,34.5,25.7,70,30.03,10.0,SW,17.3,-,N/A,,Clear,220,2013-02-12 16:55:00
11:15 AM,36.1,26.2,67,30.03,10.0,SW,16.1,-,N/A,,Clear,220,2013-02-12 17:15:00
11:35 AM,38.1,27.0,64,30.02,10.0,SW,15.0,-,N/A,,Clear,220,2013-02-12 17:35:00
11:55 AM,39.2,26.6,61,30.01,10.0,SW,16.1,-,N/A,,Clear,230,2013-02-12 17:55:00
12:15 PM,40.1,27.9,62,30.00,10.0,SW,16.1,-,N/A,,Clear,230,2013-02-12 18:15:00
12:35 PM,40.6,27.9,60,29.99,10.0,SW,15.0,-,N/A,,Clear,230,2013-02-12 18:35:00
12:55 PM,41.9,27.5,57,29.97,10.0,SW,17.3,-,N/A,,Clear,230,2013-02-12 18:55:00
1:15 PM,42.4,27.5,56,29.96,10.0,WSW,15.0,20.7,N/A,,Clear,240,2013-02-12 19:15:00
1:35 PM,43.2,27.7,54,29.94,10.0,West,19.6,-,N/A,,Clear,260,2013-02-12 19:35:00
1:55 PM,43.7,28.4,55,29.94,10.0,West,18.4,21.9,N/A,,Clear,260,2013-02-12 19:55:00
2:15 PM,43.9,28.4,55,29.93,10.0,West,15.0,-,N/A,,Clear,260,2013-02-12 20:15:00
2:35 PM,44.2,26.8,50,29.92,10.0,West,15.0,-,N/A,,Clear,260,2013-02-12 20:35:00
2:55 PM,44.4,25.2,47,29.92,10.0,WSW,17.3,-,N/A,,Clear,250,2013-02-12 20:55:00
3:15 PM,44.6,27.0,50,29.92,10.0,WSW,16.1,19.6,N/A,,Clear,250,2013-02-12 21:15:00
3:35 PM,44.2,26.4,50,29.92,10.0,West,15.0,-,N/A,,Clear,260,2013-02-12 21:35:00
3:55 PM,44.2,26.8,50,29.91,10.0,West,11.5,-,N/A,,Clear,260,2013-02-12 21:55:00
4:15 PM,44.1,26.6,50,29.91,10.0,West,11.5,-,N/A,,Clear,270,2013-02-12 22:15:00
4:35 PM,43.7,28.0,54,29.91,10.0,West,9.2,-,N/A,,Clear,260,2013-02-12 22:35:00
4:55 PM,42.8,27.9,56,29.90,10.0,WSW,8.1,-,N/A,,Clear,250,2013-02-12 22:55:00
5:15 PM,40.3,29.1,64,29.89,10.0,WSW,8.1,-,N/A,,Clear,250,2013-02-12 23:15:00
5:35 PM,38.1,28.4,68,29.89,10.0,WSW,6.9,-,N/A,,Clear,250,2013-02-12 23:35:00
5:55 PM,35.2,28.8,77,29.89,10.0,WSW,8.1,-,N/A,,Clear,240,2013-02-12 23:55:00
6:15 PM,34.3,28.0,78,29.89,10.0,SW,8.1,-,N/A,,Clear,220,2013-02-13 00:15:00
6:35 PM,33.3,28.8,84,29.89,10.0,SSW,8.1,-,N/A,,Clear,210,2013-02-13 00:35:00
6:55 PM,32.0,28.4,87,29.89,10.0,SSW,9.2,-,N/A,,Clear,210,2013-02-13 00:55:00
7:15 PM,33.8,28.8,82,29.88,10.0,SW,9.2,-,N/A,,Clear,220,2013-02-13 01:15:00
7:35 PM,33.4,28.4,82,29.88,10.0,SW,9.2,-,N/A,,Clear,220,2013-02-13 01:35:00
8:15 PM,32.4,28.4,85,29.88,10.0,SW,9.2,-,N/A,,Clear,230,2013-02-13 02:15:00
8:35 PM,32.0,28.6,87,29.88,10.0,West,8.1,-,N/A,,Clear,270,2013-02-13 02:35:00
8:55 PM,31.6,28.4,88,29.89,10.0,NW,3.5,-,N/A,,Clear,310,2013-02-13 02:55:00
9:15 PM,30.7,28.0,90,29.89,10.0,WNW,5.8,-,N/A,,Clear,290,2013-02-13 03:15:00
9:35 PM,30.0,27.7,91,29.89,10.0,West,6.9,-,N/A,,Clear,280,2013-02-13 03:35:00
9:55 PM,29.8,27.3,90,29.89,10.0,West,6.9,-,N/A,,Clear,280,2013-02-13 03:55:00
10:15 PM,31.1,26.6,83,29.89,10.0,WNW,6.9,-,N/A,,Clear,290,2013-02-13 04:15:00
10:35 PM,30.4,26.6,86,29.88,10.0,WNW,5.8,-,N/A,,Clear,290,2013-02-13 04:35:00
10:55 PM,29.3,26.4,89,29.88,10.0,West,6.9,-,N/A,,Clear,280,2013-02-13 04:55:00
11:15 PM,29.8,26.6,88,29.87,10.0,West,6.9,-,N/A,,Clear,280,2013-02-13 05:15:00
11:35 PM,29.3,26.6,90,29.87,10.0,West,5.8,-,N/A,,Clear,270,2013-02-13 05:35:00
11:55 PM,28.0,26.1,92,29.87,10.0,West,5.8,-,N/A,,Clear,270,2013-02-13 05:55:00